[[{"header":{"parameterUnit":"m.s-1","parameterCategory":1,"la1":30.2991,"la2":30.254,"lo1":-89.0895,"lo2":-89.0444,"dy":0.0017,"dx":0.0017,"nx":28,"ny":28,"refTime":"2025-03-11T09:00:00:Z","depth":0,"parameterNumber":2,"parameterNumberName":"U-component_of_WINDS"},"data":[0,0,0,0,0,0,0,0,0,0,0,0,0,0,0,0,0,0,0,0,0,0,0,0,0,0,0,0,0,0,0,0,0,0,0,0,0,0,0,0,0,0,0,0,0,0,0,0,0,0,0,0,0,0,0,0,0,0,0.1975,0.1976,0,0.2058,0.2059,0.2059,0.207,0.2069,0.2069,0.2068,0.2153,0.2156,0.2159,0,0,0,0,0,0,0,0,0,0,0,0,0,0.1827,0.183,0.1975,0.1976,0.1977,0.2057,0.2059,0.206,0.207,0.2069,0.2068,0.2068,0.2152,0.2156,0.2159,0,0,0,0,0,0,0,0,0,0,0,0,0,0.1899,0.1831,0.1974,0.1992,0.1994,0.2057,0.2059,0.206,0.2071,0.2069,0.2068,0.2067,0.2151,0.2155,0.216,0.2211,0,0,0.2174,0.2176,0,0,0,0,0,0,0,0,0.1895,0.1904,0.1988,0.1991,0.1993,0.2052,0.2038,0.2111,0.2071,0.2042,0.2068,0.2067,0.2121,0.2128,0.2146,0.2215,0.2219,0.2174,0.2177,0.2179,0.218,0,0,0,0,0,0,0,0.189,0.1901,0.2007,0.1989,0.1993,0.1996,0.2005,0.2052,0.2087,0.2044,0.2045,0.2055,0.2122,0.2141,0.2148,0.222,0.2174,0.2178,0.2181,0.2182,0.2339,0.234,0,0,0,0,0,0,0.1881,0.1896,0.2005,0.201,0.194,0.2,0.2009,0.2035,0.2086,0.2093,0.2056,0.2055,0.2134,0.2142,0.2151,0.2216,0.2179,0.2183,0.2185,0.2337,0.2339,0.234,0,0,0,0,0,0,0.1878,0.1891,0.2002,0.1954,0.1968,0.2003,0.2032,0.2037,0.2056,0.2095,0.2101,0.2069,0.2134,0.2144,0.2197,0.2219,0.2185,0.2189,0.2335,0.2338,0.234,0.2345,0,0,0,0,0,0,0.1874,0.189,0.1909,0.1954,0.197,0.2045,0.2033,0.2039,0.2064,0.2064,0.2109,0.2116,0.2133,0.219,0.2201,0.2224,0.2192,0.2334,0.2336,0.2339,0.2343,0.2348,0.2351,0,0,0,0,0,0.1869,0.1907,0.191,0.1923,0.1995,0.2047,0.2056,0.2076,0.2066,0.2086,0.2111,0.2114,0.2215,0.2195,0.2208,0.2233,0.2332,0.2336,0.2339,0.2342,0.2347,0.2351,0,0,0,0,0,0,0.1864,0.1913,0.1917,0.1971,0.2005,0.2048,0.2074,0.208,0.2117,0.2116,0.2139,0.2149,0.22,0.2222,0.2199,0.2287,0.2273,0.2279,0.227,0.2276,0.2279,0.2273,0.2196,0,0,0,0,0,0.1869,0.1906,0.1948,0.1991,0.2008,0.2039,0.2061,0.2074,0.211,0.2124,0.2153,0.2187,0.2227,0.2252,0.2291,0.2347,0.2357,0.237,0.2374,0.2377,0.2382,0.2415,0.2421,0.2351,0.2351,0.2351,0,0,0.188,0.1912,0.1934,0.1991,0.2019,0.2058,0.205,0.2091,0.212,0.213,0.2181,0.2204,0.2244,0.2299,0.2324,0.2318,0.2404,0.2381,0.2383,0.2387,0.2419,0.2425,0.2431,0.2353,0.2353,0.2353,0,0,0.192,0.1948,0.1988,0.2016,0.2058,0.2078,0.2088,0.2131,0.2147,0.2199,0.2207,0.2243,0.231,0.2339,0.2362,0.2416,0.242,0.2427,0.2447,0.2479,0.2485,0.249,0.251,0.2516,0.2432,0.2432,0.2432,0,0.1929,0.1987,0.2008,0.2049,0.2075,0.2086,0.2127,0.2154,0.2206,0.2223,0.2216,0.2302,0.233,0.2392,0.2405,0.2424,0.2436,0.2422,0.2482,0.2487,0.2492,0.2512,0.2519,0.2433,0.2433,0.2433,0.2433,0,0.1996,0.2037,0.2064,0.2115,0.2144,0.2185,0.2213,0.2239,0.225,0.2271,0.2325,0.2359,0.2405,0.2421,0.2431,0.2485,0.248,0.2477,0.2464,0.2499,0.2518,0.2526,0.2434,0.2434,0.2433,0.2433,0,0,0.2035,0.2098,0.2107,0.2131,0.2179,0.2211,0.2254,0.2299,0.2322,0.2358,0.2395,0.2453,0.2451,0.2477,0.2491,0.2519,0.256,0.2513,0.2514,0.2521,0.2624,0.2626,0.2634,0.2564,0.2565,0.2566,0.2621,0,0.2081,0.2156,0.2177,0.2241,0.228,0.2292,0.2329,0.2363,0.2384,0.242,0.2444,0.2485,0.2479,0.2495,0.2523,0.2549,0.2581,0.2546,0.2599,0.26,0.2589,0.2644,0.2646,0.2696,0.2628,0.2629,0.263,0,0.2144,0.2183,0.2251,0.2296,0.2313,0.2345,0.239,0.2424,0.2463,0.2477,0.2508,0.252,0.2565,0.2549,0.2613,0.2588,0.2611,0.2628,0.263,0.2636,0.2618,0.2652,0.2712,0.2719,0.2642,0.2641,0.264,0,0.2167,0.2235,0.2285,0.2305,0.2358,0.2381,0.2405,0.2443,0.247,0.2508,0.2526,0.257,0.2594,0.2628,0.2651,0.2637,0.2714,0.2699,0.2727,0.2726,0.2742,0.2741,0.2807,0.2756,0.2756,0.2756,0.2756,0,0.2216,0.2257,0.2296,0.2327,0.2374,0.2398,0.2444,0.2468,0.2502,0.2539,0.2552,0.2586,0.2615,0.2653,0.2672,0.2722,0.2733,0.2746,0.275,0.2745,0.2743,0.276,0.2758,0.2758,0.2758,0.2757,0.2757,0,0.2248,0.2276,0.2331,0.2378,0.2391,0.2423,0.2464,0.2494,0.2517,0.2563,0.2575,0.261,0.2656,0.2683,0.274,0.2753,0.281,0.2812,0.2796,0.2799,0.2825,0.2822,0.2905,0.2917,0.2858,0.2858,0.2859,0,0.2278,0.2311,0.2361,0.2386,0.241,0.2451,0.2479,0.2504,0.2532,0.2581,0.2606,0.2653,0.2691,0.2764,0.2795,0.284,0.2844,0.287,0.2851,0.2845,0.2845,0.2843,0.2847,0.2873,0.2874,0.2874,0.2874,0,0.2329,0.2341,0.238,0.2425,0.2458,0.2495,0.2531,0.2551,0.2583,0.2614,0.2661,0.2692,0.2751,0.2798,0.2845,0.287,0.2878,0.288,0.2889,0.2884,0.2874,0.2881,0.2806,0.2878,0.2878,0.2877,0.2877,0.2877,0.2361,0.2391,0.2432,0.2476,0.2506,0.254,0.2572,0.2599,0.2639,0.269,0.2702,0.2752,0.2793,0.2857,0.2883,0.2923,0.2919,0.2932,0.2935,0.2938,0.2939,0.2867,0.2932,0.2932,0.2932,0.2932,0.2932,0,0.2413,0.244,0.248,0.2531,0.2567,0.2572,0.2613,0.2642,0.2685,0.2722,0.2761,0.2816,0.2861,0.2897,0.2944,0.2969,0.2974,0.2981,0.2979,0.2985,0.2939,0.2927,0.2976,0.2976,0.2976,0.2976,0.2976,0.2976,0.2444,0.2495,0.2513,0.258,0.2607,0.2657,0.268,0.2712,0.2742,0.2803,0.2841,0.2864,0.2901,0.2951,0.2994,0.3003,0.302,0.3026,0.3036,0.2993,0.2988,0.2984,0.2972,0.303,0.303,0.3079,0.3079,0.308]},{"header":{"parameterUnit":"m.s-1","parameterCategory":1,"la1":30.2991,"la2":30.254,"lo1":-89.0895,"lo2":-89.0444,"dy":0.0017,"dx":0.0017,"nx":28,"ny":28,"refTime":"2025-03-11T09:00:00:Z","depth":0,"parameterNumber":3,"parameterNumberName":"V-component_of_WINDS"},"data":[0,0,0,0,0,0,0,0,0,0,0,0,0,0,0,0,0,0,0,0,0,0,0,0,0,0,0,0,0,0,0,0,0,0,0,0,0,0,0,0,0,0,0,0,0,0,0,0,0,0,0,0,0,0,0,0,0,0,4.7338,4.7338,0,4.741,4.7411,4.7412,4.7359,4.7357,4.7355,4.7353,4.7424,4.7428,4.7432,0,0,0,0,0,0,0,0,0,0,0,0,0,4.7152,4.7156,4.7337,4.7338,4.7339,4.741,4.7411,4.7412,4.736,4.7357,4.7354,4.7352,4.7423,4.7428,4.7433,0,0,0,0,0,0,0,0,0,0,0,0,0,4.723,4.7157,4.7337,4.7322,4.7321,4.741,4.7411,4.7412,4.736,4.7357,4.7354,4.735,4.7422,4.7427,4.7433,4.754,0,0,4.7452,4.7455,0,0,0,0,0,0,0,0,4.7225,4.7236,4.7323,4.7323,4.7323,4.7372,4.7372,4.7455,4.7361,4.7346,4.7353,4.7349,4.741,4.7417,4.7438,4.7544,4.7547,4.7453,4.7456,4.7459,4.7461,0,0,0,0,0,0,0,4.722,4.7233,4.7366,4.7325,4.7324,4.7311,4.7318,4.7388,4.7396,4.7347,4.7343,4.7352,4.7409,4.7432,4.7439,4.7548,4.7452,4.7458,4.7462,4.7464,4.7749,4.7752,0,0,0,0,0,0,4.7216,4.7229,4.7364,4.7368,4.7265,4.7317,4.7325,4.736,4.7395,4.7397,4.7355,4.735,4.7423,4.7432,4.7441,4.7571,4.7459,4.7465,4.7468,4.7745,4.7749,4.7754,0,0,0,0,0,0,4.7213,4.7229,4.7361,4.7298,4.7314,4.7324,4.7363,4.7363,4.7386,4.7402,4.7403,4.7378,4.7421,4.7433,4.7517,4.7573,4.7467,4.7473,4.774,4.7746,4.7752,4.7831,0,0,0,0,0,0,4.7208,4.7228,4.7269,4.7299,4.7317,4.7436,4.7367,4.7367,4.7397,4.7391,4.7423,4.7425,4.7419,4.7508,4.7523,4.758,4.7478,4.7735,4.7743,4.775,4.7823,4.7839,4.7852,0,0,0,0,0,4.7201,4.7287,4.7271,4.7288,4.7369,4.7439,4.7449,4.7442,4.7402,4.7443,4.7454,4.7424,4.7564,4.7517,4.7534,4.7593,4.7732,4.7741,4.7749,4.7817,4.7836,4.7851,0,0,0,0,0,0,4.7261,4.729,4.7273,4.7371,4.7404,4.743,4.7482,4.7461,4.7504,4.7496,4.7484,4.7492,4.7581,4.7595,4.7542,4.77,4.7642,4.7654,4.7688,4.7705,4.7719,4.7715,4.7483,0,0,0,0,0,4.7286,4.7341,4.7364,4.7448,4.7465,4.7471,4.7501,4.7493,4.7525,4.7538,4.7555,4.7587,4.7638,4.7672,4.772,4.7825,4.7832,4.7873,4.7888,4.7899,4.7911,4.797,4.7989,4.7783,4.7782,4.7782,0,0,4.7337,4.736,4.7395,4.7461,4.7485,4.7543,4.7483,4.7546,4.7589,4.7547,4.7629,4.7643,4.7677,4.7773,4.7816,4.7788,4.7969,4.7911,4.792,4.7925,4.7981,4.8,4.8018,4.7788,4.7787,4.7786,0,0,4.7461,4.7483,4.7558,4.7583,4.7621,4.7625,4.7643,4.7674,4.7682,4.7764,4.7735,4.7785,4.7874,4.7901,4.7926,4.8063,4.8039,4.8079,4.8154,4.8212,4.8228,4.8242,4.8294,4.8312,4.809,4.809,4.809,0,4.752,4.7607,4.7598,4.7665,4.7695,4.7662,4.7738,4.7763,4.7814,4.7836,4.7803,4.7915,4.7936,4.8039,4.8073,4.8094,4.8115,4.8076,4.8227,4.8241,4.8254,4.8303,4.8322,4.8095,4.8095,4.8094,4.8094,0,4.7678,4.7739,4.7795,4.7848,4.7884,4.7955,4.7957,4.7995,4.7984,4.7991,4.8076,4.81,4.8154,4.8178,4.8166,4.828,4.8262,4.8228,4.817,4.8279,4.8325,4.8343,4.8102,4.81,4.8099,4.8098,0,0,4.7841,4.789,4.7911,4.7936,4.7976,4.8023,4.8093,4.8147,4.8181,4.8217,4.8276,4.8353,4.8324,4.8352,4.8344,4.8394,4.8505,4.8355,4.8355,4.8384,4.8635,4.8661,4.8683,4.8488,4.8492,4.8495,4.8632,0,4.7969,4.8092,4.8087,4.8203,4.826,4.8231,4.8292,4.8323,4.8333,4.8382,4.8392,4.8448,4.8403,4.8421,4.8469,4.8481,4.8555,4.8471,4.8544,4.8547,4.8539,4.8706,4.8734,4.8863,4.865,4.8653,4.8655,0,4.8134,4.8179,4.8301,4.8336,4.836,4.8415,4.8466,4.8513,4.8549,4.8552,4.8586,4.8571,4.8642,4.8582,4.8681,4.8624,4.8653,4.8664,4.8669,4.8676,4.8609,4.8721,4.8903,4.8924,4.8683,4.868,4.8678,0,4.8243,4.8334,4.8419,4.8441,4.8483,4.8523,4.8543,4.8575,4.8609,4.8653,4.8675,4.8726,4.8755,4.8795,4.8794,4.8749,4.8895,4.8834,4.8901,4.8901,4.8934,4.8932,4.9126,4.895,4.895,4.8949,4.8949,0,4.8387,4.8463,4.847,4.8522,4.8607,4.8602,4.8686,4.8701,4.873,4.8786,4.8762,4.8814,4.8809,4.8862,4.8861,4.8945,4.8957,4.8963,4.8962,4.8966,4.8966,4.8986,4.8978,4.8954,4.8953,4.8952,4.8951,0,4.8524,4.8531,4.8623,4.8656,4.8667,4.8728,4.8757,4.8807,4.8815,4.8885,4.8902,4.8914,4.8975,4.8978,4.9048,4.9048,4.915,4.9138,4.9139,4.9138,4.9206,4.92,4.9421,4.9451,4.9254,4.9255,4.9257,0,4.8616,4.8675,4.8716,4.8752,4.8775,4.8833,4.8868,4.8865,4.8903,4.895,4.8995,4.9054,4.9102,4.9201,4.9216,4.927,4.9261,4.9335,4.9269,4.9272,4.9265,4.9263,4.9269,4.9348,4.935,4.9352,4.9353,0,4.878,4.8782,4.8834,4.889,4.8933,4.8976,4.9015,4.9046,4.9047,4.9091,4.9155,4.9192,4.9265,4.9325,4.9378,4.9398,4.9377,4.9374,4.9393,4.9399,4.9398,4.9402,4.9177,4.9369,4.9368,4.9367,4.9366,4.9365,4.8899,4.8951,4.8989,4.9049,4.908,4.9118,4.9168,4.9184,4.9237,4.9298,4.9292,4.9363,4.9399,4.9469,4.9493,4.9549,4.9523,4.955,4.9557,4.9564,4.9573,4.9388,4.9558,4.9557,4.9557,4.9557,4.9556,0,4.9064,4.9088,4.9144,4.9201,4.9249,4.9227,4.927,4.9311,4.9375,4.9411,4.946,4.9534,4.9593,4.9613,4.9671,4.9712,4.9704,4.9727,4.9725,4.973,4.9591,4.957,4.9733,4.9733,4.9733,4.9733,4.9733,4.9733,4.9156,4.9244,4.925,4.9353,4.9376,4.9447,4.9474,4.951,4.9539,4.9624,4.9674,4.9687,4.9718,4.9778,4.9831,4.9836,4.9859,4.9887,4.9888,4.9757,4.974,4.9723,4.9703,4.9891,4.9892,5.0023,5.0024,5.0025]}]]